Laredo International Airport Laredo US
ICAO: KLRD
IATA: LRD
Category: Medium
Scheduled Services: Yes

Elevation: 508 ft
TransAlt. 18000 ft.

Airport Communications:
ATIS:125.775
HOUSTON CNTR:127.8
CTAF:120.1
GND:121.8
SAN ANGELO RDO:122.3
TWR:120.1
UNICOM:122.95

KLRD Zoom In..

If you have problems with the map follow the link
https://www.worldairports.se/pages/airport.php?
ICAO=KLRD

Runways:

(A) RW 14 length 5927 ft width 150 ft
---- / hdg 139

(B) RW 17L length 8236 ft width 150 ft
---- / hdg 175

(C) RW 17R length 8743 ft width 150 ft
ILS 111.90 / hdg 175

(D) RW 32 length 5927 ft width 150 ft
---- / hdg 319

(E) RW 35L length 8743 ft width 150 ft
---- / hdg 355

(F) RW 35R length 8236 ft width 150 ft
---- / hdg 355

Location; KLRD
Day. 17 / Time. 01.56 Zulu
* Altimeter: 29.88
* Temperature: 34° c. 93.2°f.
* Wind from: 130° Speed 15 kn.
Dewpoint: 20° c.
Visibility: 10 Statute Miles.
Clouds: Clear (automated report).

KLRD 170156Z 13015KT 10SM CLR 34/20 A2988 RMK AO2 SLP111 T03390200


Wind From 130°
Speed 15 kn.

 
 
jpsmedia.com for Web Design worldairports.se 2019   terms of use